{"data":{"norad_id":53013,"epoch":"2026-09-19T18:31:41.338272Z","epoch_age_seconds":131732,"freshness":"FRESH","line1":"1 53013U 22076AD  26262.77200623 -.00066368  00000+0 -19422-2 0  9994","line2":"2 53013  53.1611 277.4098 0001544  73.7247 286.3925 15.34851559232493","mean_motion":15.34851559,"eccentricity":0.0001544,"inclination_deg":53.1611,"raan_deg":277.4098,"arg_perigee_deg":73.7247,"mean_anomaly_deg":286.3925,"bstar":-0.0019422,"rev_number":23249,"period_min":93.820147724136,"perigee_km":460.30542219817,"apogee_km":462.41745931668,"semimajor_km":6839.4984407574,"source":"CELESTRAK","updated_at":"2026-09-20T09:00:40.144496Z"}}